STARLINK-37621, 69830

Orbit data source: Space-Track

STARLINK-37621, 69830 is a payload satellite owned by SpaceX/Seattle (US) in LEO that was launched on Sun, 05 Jul 2026 UTC via an FALCON 9 launch vehicle from the Air Force Eastern Test Range (AFETR). Payload-class satellites include a variety of spacecraft equipped with specific instruments for various scientific and technological missions. These include communications satellites like Starlink; space stations such as the ISS; scientific satellites like the Hubble; Earth observation satellites from companies like Planet Labs, Umbra, and HawkEye 360; GPS; miniature CubeSats for education and research; and military/defense satellites.

Loading next visibility...
Identifier
69830, 2026-154M
Orbit
LEO
Country
Flag of USUS
Related business
Manufacturer
SpaceX/Seattle
Mission
Operational spacecraft
Bus & Motor
STARLINK V2MO, Unknown motor
Mass
575 kg wet, ~530 kg dry
Launch date (UTC)
2026-07-05 (2 months ago)
Launch vehicle
FALCON 9
Launch site
Air Force Eastern Test Range (AFETR)
Object type
Payload
Rocket body
Debris
Shape & HBR
BOX + PAN, 17.7 m
Radar Cross Section
Large (>1 m²)

Expand to show TLE details & history
Last TLE update: 7 hours ago

TLE from 7 hours ago
0 STARLINK-37621
1 69830U 26154M   26236.64596544  .00030373  00000-0  87715-3 0  9993
2 69830  53.1592  97.3878 0003415 101.9549 258.1837 15.35431207  9113
Epoch: 2026-08-24T15:30Z
TLE epoch observation values (Epoch: 2026-08-24T15:30:11.414Z)
Latitude
Longitude
-108.08444°
Altitude
461.021 km
Speed
7.637 km/s
True Right ascension
06h 29m 33s
True Declination
0° 00' 00"
Sunlit
Object was in daylight at epoch
Visualization orbit readout
Latitude
Unknown
Longitude
Unknown
Altitude
Unknown
Speed
Unknown
Apparent Right ascension
Unknown
Apparent Declination
Unknown
Sunlit
N/A
Visualization observer readout
Local Sidereal Time
13:47:13
Azimuth
Unknown
Elevation
Unknown
Doppler factor
Unknown
Orbital elements
Apogee altitude
462.232 km
Perigee altitude
457.562 km
Semi-major axis
6,838.034 km
Eccentricity
0.00034
Inclination
53.1592°
RAAN
97.3878°
Arg. of periapsis
101.9549°
True anomaly
258.1454°
Mean anomaly
258.1837°
Eccentric anomaly
258.16455°
Mean motion
3.83837 °/min
Orbital period
93.79 mins
BSTAR
0.00087715
Loading maneuver chart data...
Computing Atmospheric mass density...
Loading historical data...
Loading historical data...
Loading historical data...
Loading historical data...
Loading historical data...
Loading historical data...
Loading historical data...

Documentation

Showing up to 5 results
|